Probability
0 0 0 0 0 0 0 0 0 0 0 0 0 0 0 0 0 0 0 0 0 0 0 0 0 0 0 0 0 0 0 0 0 0 0 0 0 0 0 0 0 0 0 0
0 0 0 0 0 0 0 0 0 0 0 0 0 0 0 0 0 0 0 0 0 0 0 0 0 0 0 0 0 0 0 0 0 0 0 0 0 0 0 0 0 0 0 0
0 0 0 0 0 0 0 0 0 0 0 0 0 0 0 0 0 0 0 0 0 0 0 0 0 0 0 0 0 0 0 0 0 0 0 0 0 0 0 0 0 0 0 0
0 0 0 0 0 0 0 0 0 0 0 0 0 0 0 0 0 0 0 0 0 0 0 0 0 0 0 0 0 0 0 0 0 0 0 0 0 0 0 0 0 0 0 0
0 0 0 0 0 0 0 0 0 0 0 0 0 0 0 0 0 0 0 0 0 0 0 0 0 0 0 0 0 0 0 0 0 0 0 0 0 0 0 0 0 0 0 0
0 0 0 0 0 0 0 0 0 0 0 0 0 0 0 0 0 0 0 0 0 0 0 0 0 0 0 0 0 0 0 0 0 0 0 0 0 0 0 0 0 0 0 0
0 0 0 0 0 0 0 0 0 0 0 0 0 0 0 0 0 0 0 0 0 0 0 0 0 0 0 0 0 0 0 0 0 0 0 0 0 0 0 0 0 0 0 0
0 0 0 0 0 0 0 0 0 0 0 0 0 0 0 0 0 0 0 0 0 0 0 0 0 0 0 0 0 0 0 0 0 0 0 0 0 0 0 0 0 0 0 0
0 0 0 0 0 0 0 0 0 0 0 0 0 0 0 0 0 0 0 0 0 0 0 0 0 0 0 0 0 0 0 0 0 0 0 0 0 0 0 0 0 0 0 0
0 0 0 0 0 0 0 0 0 0 0 0 0 0 0 0 0 0 0 0 0 0 0 0 0 0 0 0 0 0 0 0 0 0 0 0 0 0 0 0 0 0 0 0
0 0 0 0 0 0 0 0 0 0 0 0 0 0 0 0 0 0 0 0 0 0 0 0 0 0 0 0 0 0 0 0 0 0 0 0 0 0 0 0 0 0 0 0
0 0 0 0 0 0 0 0 0 0 0 0 0 0 0 0 0 0 0 0 0 0 0 0 0 0 0 0 0 0 0 0 0 0 0 0 0 0 0 0 0 0 0 0
0 0 0 0 0 0 0 0 0 0 0 0 0 0 0 0 0 0 0 0 0 0 0 0 0 0 0 0 0 0 0 0 0 0 0 0 0 0 0 0 0 0 0 0
0 0 0 0 0 0 0 0 0 0 0 0 0 0 0 0 0 0 0 0 0 0 0 0 0 0 0 0 0 0 0 0 0 0 0 0 0 0 0 0 0 0 0 0
0 0 0 0 0 0 0 0 0 0 0 0 0 0 0 0 0 0 0 0 0 0 0 0 0 0 0 0 0 0 0 0 0 0 0 0 0 0 0 0 0 0 0 0
0 0 0 0 0 0 0 0 0 0 0 0 0 0 0 0 0 0 0 0 0 0 0 0 0 0 0 0 0 0 0 0 0 0 0 0 0 0 0 0 0 0 0 0
0 0 0 0 0 0 0 0 0 0 0 0 0 0 0 0 0 0 0 0 0 0 0 0 0 0 0 0 0 0 0 0 0 0 0 0 0 0 0 0 0 0 0 0
0 0 0 0 0 0 0 0 0 0 0 0 0 0 0 0 0 0 0 0 0 0 0 0 0 0 0 0 0 0 0 0 0 0 0 0 0 0 0 0 0 0 0 0
0 0 0 0 0 0 0 0 0 0 0 0 0 0 0 0 0 0 0 0 0 0 0 0 0 0 0 0 0 0 0 0 0 0 0 0 0 0 0 0 0 0 0 0
0 0 0 0 0 0 0 0 0 0 0 0 0 0 0 0 0 0 0 0 0 0 0 0 0 0 0 0 0 0 0 0 0 0 0 0 0 0 0 0 0 0 0 0
0 0 0 0 0 0 0 0 0 0 0 0 0 0 0 0 0 0 0 0 0 0 0 0 0 0 0 0 0 0 0 0 0 0 0 0 0 0 0 0 0 0 0 0
0 0 0 0 0 0 0 0 0 0 0 0 0 0 0 0 0 0 0 0 0 0 0 0 0 0 0 0 0 0 0 0 0 0 0 0 0 0 0 0 0 0 0 0
0 0 0 0 0 0 0 0 0 0 0 0 0 0 0 0 0 0 0 0 0 0 0 0 0 0 0 0 0 0 0 0 0 0 0 0 0 0 0 0 0 0 0 0
0 0 0 0 0 0 0 0 0 0 0 0 0 0 0 0 0 0 0 0 0 0 0 0 0 0 0 0 0 0 0 0 0 0 0 0 0 0 0 0 0 0 0 0
0 0 0 0 0 0 0 0 0 0 0 0 0 0 0 0 0 0 0 0 0 0 0 0 0 0 0 0 0 0 0 0 0 0 0 0 0 0 0 0 0 0 0 0
0 0 0 0 0 0 0 0 0 0 0 0 0 0 0 0 0 0 0 0 0 0 0 0 0 0 0 0 0 0 0 0 0 0 0 0 0 0 0 0 0 0 0 0
0 0 0 0 0 0 0 0 0 0 0 0 0 0 0 0 0 0 0 0 0 0 0 0 0 0 0 0 0 0 0 0 0 0 0 0 0 0 0 0 0 0 0 0
Wind_Speed
22 25 22 21 16 21 26 30 31 26 24 33 29 21 21 21 19 20 17 16 19 18 17 18 19 21 22 21 19 18 15 13 11 9 6 5 6 6 5 6 7 9 11 12
26 27 27 25 22 31 33 34 32 26 29 38 30 27 26 29 24 26 22 20 19 18 17 20 22 22 22 20 18 17 15 13 11 9 7 6 5 5 6 6 7 8 10 11
25 28 24 22 30 35 44 43 35 33 35 36 31 29 30 29 23 24 23 22 17 17 20 21 23 24 23 20 19 16 14 13 11 10 8 6 5 5 6 6 7 8 9 9
14 16 24 29 29 37 37 35 33 33 38 35 35 28 29 23 17 21 21 19 13 15 17 17 18 20 19 18 17 16 14 13 12 11 9 7 5 4 5 5 6 8 9 10
14 20 22 12 21 25 23 29 29 31 33 32 27 13 28 21 18 22 19 15 10 11 13 17 19 21 20 18 17 16 15 14 12 10 9 7 5 4 3 4 6 7 9 11
19 18 23 25 25 13 5 10 31 30 27 29 15 9 23 13 14 18 13 4 8 9 12 15 18 21 22 20 18 16 15 13 11 8 6 5 4 2 2 4 6 8 10 11
30 29 20 17 11 9 16 31 32 27 24 25 23 24 22 5 11 5 4 8 12 14 13 14 16 18 19 18 15 14 14 12 10 8 7 6 4 1 1 4 6 8 10 12
23 29 28 23 24 27 37 32 24 19 15 14 18 21 19 11 11 8 8 11 13 12 14 15 17 19 18 16 15 14 13 12 10 7 6 5 4 3 1 2 5 8 10 11
30 24 19 26 35 37 35 29 26 21 15 9 12 16 16 12 12 10 9 9 10 11 14 14 15 17 19 17 16 15 13 12 10 9 7 5 4 3 2 2 3 7 9 10
32 33 22 17 20 21 22 26 27 24 18 11 16 16 13 10 10 10 11 11 10 12 14 14 13 14 18 18 16 14 12 12 10 8 7 5 4 3 2 1 4 7 8 10
16 21 27 24 16 12 13 16 18 19 14 15 16 16 15 12 14 14 13 13 13 13 15 17 16 16 16 17 18 16 14 11 10 8 6 5 4 3 1 1 4 7 7 9
20 17 17 16 12 12 14 17 19 18 19 19 19 20 18 16 15 14 15 16 17 17 18 19 18 17 15 14 15 16 14 11 9 7 5 4 3 3 2 2 6 7 10 11
25 23 23 23 20 18 17 17 16 16 18 19 19 17 20 18 13 15 17 19 20 19 20 20 19 18 15 14 14 14 13 12 10 9 6 5 4 2 1 2 4 6 9 12
26 26 31 29 26 22 22 23 25 26 25 22 20 18 16 14 12 17 21 23 22 22 23 22 21 18 16 14 13 12 12 12 11 9 7 6 5 4 2 2 4 5 9 11
18 20 23 23 22 20 21 21 23 25 24 24 23 22 18 16 18 19 18 19 22 24 25 25 23 20 17 15 15 14 11 9 10 9 7 7 6 5 4 3 1 4 7 8
21 19 16 16 19 21 21 22 21 22 23 25 24 24 20 15 11 11 15 21 24 23 22 20 19 18 17 17 16 13 11 12 11 9 8 7 5 5 4 2 0 3 4 6
20 20 22 25 23 22 23 24 25 25 24 26 25 18 8 10 15 18 19 19 20 21 21 22 21 18 15 16 15 12 11 11 11 8 7 6 5 5 4 2 0 2 3 6
19 23 23 25 25 24 27 27 26 26 24 25 21 16 13 18 21 21 22 22 21 22 20 20 24 22 17 14 13 11 10 10 9 8 7 7 6 5 3 2 0 2 4 6
19 22 23 24 22 23 27 28 27 26 26 22 18 16 13 14 16 21 24 25 25 24 21 22 23 20 17 17 15 11 11 11 9 8 7 8 7 5 3 2 1 2 3 5
21 22 24 24 22 23 25 24 24 22 16 10 1 8 11 12 13 14 16 16 16 19 24 25 25 18 16 17 16 11 11 12 10 8 8 7 7 5 4 2 1 1 3 4
23 22 22 23 23 23 19 17 13 6 6 7 12 14 16 16 16 16 16 15 15 20 22 22 19 16 14 14 13 10 10 10 9 8 8 7 6 5 4 3 1 1 2 4
22 22 21 21 21 17 14 13 10 8 9 11 13 15 17 17 16 15 13 14 18 19 16 14 14 16 16 15 10 10 10 9 8 7 6 6 5 5 4 2 1 1 3 4
19 19 19 18 16 13 11 11 10 10 9 10 11 14 15 13 11 15 16 12 14 17 14 13 17 21 19 12 10 10 10 9 8 7 6 6 4 3 3 2 1 2 3 4
17 17 15 14 11 10 11 11 11 11 12 12 12 13 11 10 12 14 15 17 18 18 14 16 20 20 14 9 9 9 8 8 7 7 6 5 4 3 1 1 2 3 3 4
14 13 13 12 10 9 9 8 7 9 12 13 14 13 10 9 12 16 14 15 18 17 15 17 19 16 11 9 9 8 7 6 6 6 6 5 4 3 2 2 4 4 3 3
11 9 8 9 8 7 7 7 7 9 9 9 11 10 9 10 12 13 14 15 15 15 13 12 11 10 8 8 8 7 7 7 6 5 5 4 4 4 3 3 5 5 3 4
9 9 8 8 9 9 9 9 9 9 10 10 11 11 10 10 11 12 13 12 11 11 10 9 9 8 8 7 7 6 5 5 4 4 4 3 3 3 3 3 4 4 3 5
Wind_Direction
251 261 263 271 265 246 233 238 246 256 261 264 274 278 277 276 274 269 256 234 228 223 212 200 192 185 181 178 168 161 163 166 168 165 174 195 227 248 272 286 285 285 290 291
254 261 264 265 261 263 260 250 251 258 262 263 272 281 281 273 269 271 267 254 237 221 205 198 192 184 179 174 164 159 162 163 159 164 174 198 219 249 267 272 281 288 290 297
247 244 255 247 239 245 253 259 254 253 255 264 262 258 258 267 271 265 265 263 250 213 204 199 189 181 178 167 156 157 158 158 161 167 179 194 212 241 263 279 293 294 297 305
245 241 235 235 238 239 248 253 253 251 254 255 258 264 270 266 262 258 259 262 240 212 206 192 178 173 164 155 152 156 158 162 166 171 176 184 206 232 259 278 293 302 308 305
224 227 238 234 238 233 235 254 256 251 254 255 260 268 267 258 245 255 261 267 250 206 189 170 167 161 154 153 153 158 165 167 168 171 172 176 190 220 259 291 306 306 301 302
227 230 231 230 234 233 110 253 250 244 245 253 251 228 259 251 215 236 240 207 142 147 154 161 158 155 155 158 158 163 163 160 157 160 163 173 182 216 296 311 307 308 305 301
233 239 239 228 216 166 199 239 247 246 241 244 242 234 250 194 154 198 153 145 148 147 153 156 155 160 156 154 158 152 144 141 145 154 168 171 174 172 299 314 314 311 304 298
225 238 240 221 218 214 233 238 242 251 246 225 235 245 245 209 165 175 170 162 161 155 152 154 162 161 154 147 139 137 138 139 145 158 177 170 166 163 175 326 323 320 307 300
222 230 230 212 217 224 234 245 246 249 248 208 226 235 234 214 194 192 185 175 172 159 148 154 165 162 147 138 139 142 143 144 153 161 174 173 172 151 112 41 336 317 308 311
252 251 256 249 234 234 239 242 245 249 254 212 223 235 233 217 191 185 184 178 173 159 154 153 159 149 136 138 141 142 145 149 153 158 165 172 168 138 105 27 328 307 316 313
268 279 278 275 270 271 277 280 272 265 254 240 238 238 233 219 205 197 183 173 171 169 162 156 152 138 139 144 148 148 149 151 149 152 164 156 137 125 125 198 288 304 314 311
271 283 281 283 296 303 291 279 269 263 260 247 240 241 234 223 217 194 180 170 170 171 164 155 150 143 147 154 151 145 146 152 149 147 153 142 125 133 149 323 333 326 316 309
280 287 292 300 303 297 286 281 282 280 272 267 260 241 235 235 211 180 173 174 176 171 162 153 149 148 153 158 152 149 148 149 147 146 149 137 121 114 91 14 352 325 326 320
283 288 290 289 291 292 289 288 288 283 275 268 264 257 241 227 189 180 182 179 166 160 157 153 150 152 156 152 146 143 141 144 145 146 147 144 143 134 107 36 346 326 315 324
300 305 299 301 300 298 296 293 288 284 281 274 265 258 247 226 207 198 180 163 158 161 159 157 152 150 149 144 142 144 147 146 140 140 143 147 148 141 135 139 237 291 304 326
322 313 314 318 313 310 311 305 297 293 292 286 279 269 256 234 203 172 162 158 161 164 157 149 143 142 144 143 142 144 146 144 139 142 147 146 145 136 122 116 329 306 322 327
326 319 326 315 306 303 298 292 286 283 283 284 281 273 227 164 153 158 158 163 159 150 147 144 140 143 147 147 145 143 141 140 140 141 139 141 133 120 114 127 307 316 328 315
311 301 298 293 293 294 292 286 281 281 279 276 276 267 209 181 176 166 155 150 143 139 142 142 140 141 146 150 145 138 135 138 143 139 145 141 129 121 129 146 81 344 320 315
310 302 297 292 290 285 280 279 280 279 275 271 267 256 214 186 164 155 148 146 146 140 139 136 136 134 143 148 140 133 134 134 138 145 144 136 127 127 146 144 77 360 316 318
311 305 300 297 295 288 285 278 274 274 282 282 177 104 105 111 123 130 132 138 141 135 136 135 131 138 144 143 137 136 135 138 145 146 143 138 133 147 150 136 90 319 313 319
312 310 306 303 303 300 304 309 305 323 17 68 98 107 109 113 123 128 124 109 110 124 126 127 131 138 138 136 137 135 134 140 147 148 147 140 144 151 151 140 137 288 317 322
312 311 310 310 308 314 327 336 359 30 54 76 94 109 113 113 108 95 90 109 121 124 122 125 130 132 133 135 134 132 134 140 142 143 142 146 150 148 147 143 183 298 311 317
310 312 315 316 316 326 346 2 24 49 67 85 103 108 103 99 107 114 110 113 120 121 120 122 129 131 131 130 130 131 138 145 148 147 149 147 142 146 147 168 223 284 297 315
312 317 321 319 329 1 16 18 36 51 60 64 69 77 88 92 79 84 107 121 123 119 118 125 131 132 129 125 128 136 144 149 147 144 139 134 140 144 177 240 275 279 290 311
318 323 332 340 352 4 10 19 43 56 61 57 52 49 49 61 100 113 115 115 117 115 119 128 130 126 122 128 136 142 145 145 146 142 139 147 154 173 199 239 260 268 279 300
332 336 343 355 1 7 17 28 42 51 60 68 64 63 71 82 94 102 107 109 112 116 118 118 118 120 127 133 137 139 142 146 151 153 153 160 180 194 203 229 254 263 281 293
346 357 359 7 15 21 31 37 44 51 55 69 77 75 80 87 96 101 104 106 107 104 102 108 117 123 128 131 135 140 146 152 159 160 166 184 199 218 231 242 262 276 287 285